User: anonymous   Login
Location: Ay?beleni
(36.6500°N, 30.3000°E)
Time: 16:31:55
(UTC+00:00)
Language:

Cosmos 1328 - Orbit

View from above orbital plane
View from above orbital plane
View from above satellite
View from above satellite

Ground track
Ground track

The orbit data is extracted from the following two-line orbital elements,

1 12987U 81117A   20195.52596078 -.00000198 +00000-0 -14758-4 0  9993
2 12987 082.5178 228.0366 0005187 078.6173 281.5638 15.08114706101615
Epoch (UTC): 13 July 2020 12:37:23
Eccentricity: 0.0005187
inclination: 82.5178°
perigee height: 538 km
apogee height: 545 km
right ascension of ascending node: 228.0366°
argument of perigee: 78.6173°
revolutions per day: 15.08114706
mean anomaly at epoch: 281.5638°
orbit number at epoch: 10161

The dashed part of the orbit path shows where the satellite is in the earth's shadow,  

DLR